TimePST,TemperatureF,Dew PointF,Humidity,Sea Level PressureIn,VisibilityMPH,Wind Direction,Wind SpeedMPH,Gust SpeedMPH,PrecipitationIn,Events,Conditions,WindDirDegrees,DateUTC
12:53 AM,59.0,46.9,64,29.95,10.0,South,13.8,-,N/A,,Overcast,190,2012-11-07 08:53:00
1:53 AM,59.0,46.9,64,29.96,10.0,South,13.8,-,N/A,,Overcast,190,2012-11-07 09:53:00
2:53 AM,57.0,48.0,72,29.97,10.0,SSW,12.7,-,0.00,,Overcast,210,2012-11-07 10:53:00
3:14 AM,57.2,46.4,67,29.97,10.0,SW,12.7,-,N/A,,Overcast,220,2012-11-07 11:14:00
3:53 AM,55.0,48.0,77,29.99,5.0,SW,10.4,-,0.01,Rain,Rain,230,2012-11-07 11:53:00
4:53 AM,51.1,48.9,92,30.03,4.0,SW,15.0,-,0.09,Rain,Rain,230,2012-11-07 12:53:00
5:21 AM,50.0,46.4,87,30.04,8.0,SSW,16.1,-,0.02,Rain,Light Rain,200,2012-11-07 13:21:00
5:53 AM,48.9,45.0,86,30.06,10.0,South,15.0,-,0.04,Rain,Light Rain,180,2012-11-07 13:53:00
6:53 AM,48.9,39.9,71,30.07,10.0,SSW,16.1,25.3,0.00,,Overcast,200,2012-11-07 14:53:00
7:53 AM,48.0,39.0,71,30.09,10.0,SSW,18.4,-,N/A,,Mostly Cloudy,210,2012-11-07 15:53:00
8:53 AM,48.9,39.9,71,30.11,10.0,SSW,16.1,-,N/A,,Clear,210,2012-11-07 16:53:00
9:53 AM,51.1,39.9,66,30.10,10.0,SSW,13.8,20.7,N/A,,Clear,210,2012-11-07 17:53:00
10:53 AM,53.1,37.9,57,30.10,10.0,SSW,18.4,-,N/A,,Clear,210,2012-11-07 18:53:00
11:53 AM,54.0,37.0,53,30.08,10.0,SW,15.0,-,N/A,,Partly Cloudy,220,2012-11-07 19:53:00
12:53 PM,53.1,36.0,52,30.08,10.0,WSW,12.7,-,N/A,,Scattered Clouds,240,2012-11-07 20:53:00
1:53 PM,55.0,33.1,43,30.08,10.0,SW,13.8,-,N/A,,Scattered Clouds,230,2012-11-07 21:53:00
2:53 PM,54.0,33.1,45,30.07,10.0,WSW,11.5,-,N/A,,Clear,240,2012-11-07 22:53:00
3:53 PM,52.0,35.1,53,30.07,10.0,SSW,6.9,-,N/A,,Clear,210,2012-11-07 23:53:00
4:53 PM,48.0,36.0,63,30.06,10.0,SSE,6.9,-,N/A,,Clear,160,2012-11-08 00:53:00
5:53 PM,48.0,33.1,56,30.07,10.0,SSE,9.2,-,N/A,,Clear,160,2012-11-08 01:53:00
6:53 PM,45.0,33.1,63,30.05,10.0,SE,8.1,-,N/A,,Clear,130,2012-11-08 02:53:00
7:53 PM,42.1,32.0,67,30.03,10.0,East,8.1,-,N/A,,Clear,100,2012-11-08 03:53:00
8:53 PM,41.0,32.0,70,30.01,10.0,East,6.9,-,N/A,,Clear,100,2012-11-08 04:53:00
9:53 PM,41.0,30.9,67,29.99,10.0,ESE,8.1,-,N/A,,Clear,110,2012-11-08 05:53:00
10:53 PM,41.0,30.9,67,29.96,10.0,ESE,9.2,-,N/A,,Clear,110,2012-11-08 06:53:00
11:53 PM,37.9,30.0,73,29.94,10.0,East,9.2,-,N/A,,Clear,100,2012-11-08 07:53:00